Weather Roundup
Issued by NWS

Home | Current Version | Previous Version | Graphics & Text | Print | Product List | Glossary Off
Versions: 1 2 3 4 5 6 7 8 9 10 11 12 13 14 15 16 17 18 19 20 21 22 23 24 25 26 27 28 29 30 31 32 33 34 35 36 37 38 39 40 41 42 43 44 45 46 47 48 49 50

000
NZUS93 KARX 270610
HRRWXR

CURRENT HOURLY OBSERVATIONS ACROSS
MUCH OF THE UPPER MISSISSIPPI VALLEY
NATIONAL WEATHER SERVICE LA CROSSE WI
100 AM CDT SAT AUG 27 2016


...SOUTHEAST MINNESOTA...


CITY           SKY/WX    TMP DP  RH WIND       PRES   REMARKS
ROCHESTER      FAIR      60  59  96 SE6       30.13F
ROCHESTER/MAYO FAIR      63  59  87 E7        30.12F
WINONA         FAIR      63  61  94 SE3       30.13S
AUSTIN         LGT RAIN  63  59  88 SE5       30.12S
ALBERT LEA     CLOUDY    64  61  88 SE8       30.11S
DODGE CENTER   FAIR      61  57  88 SE8       30.11F
PRESTON        FAIR      61  58  92 SE6       30.14S
OWATONNA       FAIR      63  57  82 SE5       30.11S
FARIBAULT      CLOUDY    63  59  88 SE3       30.10F
$$

...ELSEWHERE IN MINNESOTA...


CITY           SKY/WX    TMP DP  RH WIND       PRES   REMARKS
MINNEAPOLIS    CLOUDY    65  55  70 SE7       30.10S
INTNL FALLS    CLOUDY    59  52  77 CALM      30.06S
DULUTH         FAIR      61  54  77 SW6       30.13S
RED WING       FAIR      64  57  77 E3        30.09F
REDWOOD FALLS  FAIR      61  58  90 E3        30.08F
MANKATO        CLOUDY    64  57  77 SE7       30.09F
WORTHINGTON    CLOUDY    60  59  96 E3        30.09F
FAIRMONT       CLOUDY    61  58  90 SE5       30.09F
$$

...SOUTHWEST WISCONSIN...


CITY           SKY/WX    TMP DP  RH WIND       PRES   REMARKS
LA CROSSE      LGT RAIN  65  63  93 S6        30.13S
PRAIRIE DU CHI LGT RAIN  63  59  88 CALM      30.12F
BOSCOBEL       LGT RAIN  65  63  93 CALM      30.13R
LONE ROCK      CLOUDY    66  61  84 CALM      30.13S
PLATTEVILLE    CLOUDY    64  64  99 N7        30.11F
FORT MC COY    LGT RAIN  61  61  99 CALM      30.15S
CAMP DOUGLAS   RAIN      63  61  94 SW7       30.16R
MAUSTON-NEW LI RAIN      63  62  97 CALM      30.14R
VIROQUA        CLOUDY    61  60  97 E5        30.15F
WIS DELLS      CLOUDY    63  61  93 CALM      30.14S
$$

...ELSEWHERE IN WISCONSIN...


CITY           SKY/WX    TMP DP  RH WIND       PRES   REMARKS
MILWAUKEE      MOCLDY    68  62  81 CALM      30.14R
MADISON        CLOUDY    66  60  81 MISG      30.13R
GREEN BAY      CLOUDY    62  62 100 CALM      30.15S
EAU CLAIRE     CLOUDY    61  59  93 CALM      30.11F
BLACK RVR FLS  LGT RAIN  62  62 100 CALM      30.13F
MEDFORD        MOCLDY    56  56 100 CALM      30.15S
WAUSAU         FAIR      60  57  89 E3        30.14F
WIS RAPIDS     LGT RAIN  61  60  97 CALM      30.17R
MARSHFIELD     LGT RAIN  61  57  87 CALM      30.15S
RICE LAKE      FAIR      58  56  93 CALM      30.15S
$$

...NORTHEAST IOWA...


CITY           SKY/WX    TMP DP  RH WIND       PRES   REMARKS
WATERLOO       LGT RAIN  60  58  92 E6        30.08F
DUBUQUE        HVY RAIN  64  63  96 NE8       30.10F FOG
DECORAH        DRIZZLE   61  61 100 CALM      30.13S
MASON CITY     MOCLDY    61  59  93 N3        30.12F
CHARLES CITY   MOCLDY    61  61 100 E7        30.11F
OELWEIN        DRIZZLE   61  59  94 NE9       30.11F
$$

...ELSEWHERE IN IOWA...


CITY           SKY/WX    TMP DP  RH WIND       PRES   REMARKS
DES MOINES     CLOUDY    65  62  90 E10       30.02F
IOWA CITY      LGT RAIN  69  64  84 NE7       30.06F
FORT DODGE     CLOUDY    61  57  88 E8        30.07F
MARSHALLTOWN   CLOUDY    61  60  97 E13       30.05F
CEDAR RAPIDS   LGT RAIN  67  64  90 NE10      30.06F
$$

...NORTHERN ILLINOIS...


CITY           SKY/WX    TMP DP  RH WIND       PRES   REMARKS
CHICAGO-OHARE  CLOUDY    69  65  86 NE7       30.11F
CHICAGO-MIDWAY CLOUDY    72  65  78 E9        30.11F
MOLINE         FAIR      68  66  93 E6        30.04F
ROCKFORD       LGT RAIN  67  61  81 E6        30.11S
PEORIA         LGT RAIN  71  71 100 SE8       30.06F
$$

NOTE: "FAIR" INDICATES FEW OR NO CLOUDS BELOW 12,000 FEET WITH NO
SIGNIFICANT WEATHER AND/OR OBSTRUCTIONS TO VISIBILITY. WIND
SPEEDS ARE IN MILES-PER-HOUR.




USA.gov is the U.S. government's official web portal to all federal, state and local government web resources and services.